Address 0x0238795d549cd15985b1a38850ebdc70a6c9f499

Txn Hash
Block
From
To
Value [Txn Fee]
0xed6d1c57a53cc0c5af10f7fe831c6682c6e75159707c4ba0f859d0281a51efea18231292020-10-31 10:57:0314 hrs 10 mins ago0x0238795d549cd15985b1a38850ebdc70a6c9f499OUT0xbe288e652ff75418f8187ac65fc93c941a2c27380.00863478 BNB0.000483
0xe688c8dc849f4a3331e8e83d463b80a8b6290453d75ca1c066fae61df19b79fb17517122020-10-28 23:23:553 days 1 hr ago0x0238795d549cd15985b1a38850ebdc70a6c9f499OUT 7UP Finance: 7UP Token0 BNB0.00088222
0x69fe12965272afcf58462b232571ca755739ebd6c8120220d3fe0a3c6b160d8017514442020-10-28 23:10:313 days 1 hr ago0xbe288e652ff75418f8187ac65fc93c941a2c2738 IN 0x0238795d549cd15985b1a38850ebdc70a6c9f4990.01 BNB0.000483
0x0c37d6e08044fbb8d2368957db30cf0439a0a3ea8e213fe3e6c7a8895b48dfd917444532020-10-28 17:20:583 days 7 hrs ago0x0238795d549cd15985b1a38850ebdc70a6c9f499OUT0xbe288e652ff75418f8187ac65fc93c941a2c27380.054023314023029 BNB0.000483
0xcd23a8a908dd2f8beb35635add8080df05ae5b504431718e9026544687208cc417443532020-10-28 17:15:583 days 7 hrs ago0x0238795d549cd15985b1a38850ebdc70a6c9f499OUT PancakeSwap: Router0 BNB0.002629452
0x07b2d5f181807a20c0aa8b8f1cbcdc1adb437d755021486a0b57da05324b61ca17443352020-10-28 17:15:043 days 7 hrs ago0x0238795d549cd15985b1a38850ebdc70a6c9f499OUT PancakeSwap: Router0 BNB0.002974452
0xcb8991c36a70766ea76268793ad8192f0dcbdd95d5fa145ecb0e90662fa6ca1b17443182020-10-28 17:14:133 days 7 hrs ago0x9c7de36bf33d6e12ac70541a520ba0bab892ddd9 IN 0x0238795d549cd15985b1a38850ebdc70a6c9f4990.00227530173615 BNB0.000483
0x367e85f79920a8627866b1cb0b2632fc3451bf5aafdf7dfbfa54974530e4ccb617443092020-10-28 17:13:463 days 7 hrs ago0x71f2dbda5e68603a6ad841c668f58fd657058bff IN 0x0238795d549cd15985b1a38850ebdc70a6c9f4990.001620563 BNB0.000483
0x3c4a88224f89235fff4efb25b8078cb495fa13c1537959e32515c0f5bf03e94a17441632020-10-28 17:06:283 days 8 hrs ago0x0238795d549cd15985b1a38850ebdc70a6c9f499OUT 0xe35ac677faa9f0a712efa5b7d3053246f02669f00 BNB0.001021338
0x52b70fc670b9cf943f1e2194bcc5740568056e5566cbbf3b0384340a57c79e9a16198582020-10-24 9:26:257 days 15 hrs ago0x0238795d549cd15985b1a38850ebdc70a6c9f499OUT PancakeSwap: Router0.001 BNB0.002900277
0x7fb59f1a0526dd6b068d15d12d2d58a162decabde2f21797ffae5e78f2fbc09916198262020-10-24 9:24:497 days 15 hrs ago0x0238795d549cd15985b1a38850ebdc70a6c9f499OUT PancakeSwap: STAX0 BNB0.00088662
0x0613b1a6a179734603a5f7c44bbd54073a19d42043f161e564fd72583bea851615981872020-10-23 15:22:298 days 9 hrs ago0x0238795d549cd15985b1a38850ebdc70a6c9f499OUT BSC Farm: BSC Token0 BNB0.000486381
0xd205539fa2cfe2c11bf6c62f685ad702886617592b4240d06103a3ddab891fee15979202020-10-23 15:09:088 days 9 hrs ago0x0238795d549cd15985b1a38850ebdc70a6c9f499OUT 0xc234b8d990061e83746d679c4f56ffe61b0b64d30 BNB0.00197622
0x86cab9a526c64a6c86ce639fe2b2888ee6e931501523fc9ed830e3b870fac02215978972020-10-23 15:07:598 days 9 hrs ago0xbe288e652ff75418f8187ac65fc93c941a2c2738 IN 0x0238795d549cd15985b1a38850ebdc70a6c9f4990.01 BNB0.000483
0xdf1b3a302b7b3d6a747e3350a7d4013861bcb83bcb6c221f29a857ec9bee25b915607112020-10-22 8:08:419 days 16 hrs ago0x0238795d549cd15985b1a38850ebdc70a6c9f499OUT0xbe288e652ff75418f8187ac65fc93c941a2c27380.012526353319772 BNB0.000483
0x90aad25567e18b7695d4df7ae0b59d2ad7d72e389eb1001f0c2cef1882f36e5c15606972020-10-22 8:07:599 days 16 hrs ago0x0238795d549cd15985b1a38850ebdc70a6c9f499OUT 0x4a2a35d0d259ecd344fab05adeb9c72389adf2d80 BNB0.0012805
0x1684260bb5beee127fa04c9051db050e1f04ab4c3bb6e507d416e226ccdeb21815412562020-10-21 15:52:3110 days 9 hrs ago0x0238795d549cd15985b1a38850ebdc70a6c9f499OUT Dego.Finance: DEGO Token0 BNB0.001455969
0x5d86a3f2e9ddc2f34fcaa600757ef663fa96e26f28a7759f3d1ec3407d0e821515404222020-10-21 15:10:4910 days 9 hrs ago0x0238795d549cd15985b1a38850ebdc70a6c9f499OUT 0x7e440598f8f63fccd9b12a606263a02a06cfb16a0 BNB0.000507242
0xc0d1b7533af969c9584a3cc64922441f0e0e4520d009b694969d13386d2b522115079152020-10-20 12:05:2711 days 13 hrs ago0x0238795d549cd15985b1a38850ebdc70a6c9f499OUT 0x4a2a35d0d259ecd344fab05adeb9c72389adf2d80 BNB0.00208732
0x1c23982d34a68b6e2162106167f6a2805c4bea29fb823ad4c934023652f2c7c415079082020-10-20 12:05:0611 days 13 hrs ago0x0238795d549cd15985b1a38850ebdc70a6c9f499OUT BakerySwap: BAKE Token0 BNB0.00088764
0x2b8434ba954bca17940ebfbdcc8e869082c836dd8cec38211fb40c57aa53fbaf15079032020-10-20 12:04:5111 days 13 hrs ago0x0238795d549cd15985b1a38850ebdc70a6c9f499OUT BakerySwap: BAKE Token0 BNB0.001020786
0xd8dc0648ce6fb6ddee02f1e8d1ee7c9c39b4da12668723436ff6ff1bb23c2d2115078892020-10-20 12:04:0911 days 13 hrs ago0x0238795d549cd15985b1a38850ebdc70a6c9f499OUT Battle Pets: PET Token0 BNB0.001020786
0x5625770ff75ebc5997e5f3c5cd6f42848d037cd5ca76c5e01cb98c8480261daf15078852020-10-20 12:03:5711 days 13 hrs ago0x0238795d549cd15985b1a38850ebdc70a6c9f499OUT 0xcde540d7eafe93ac5fe6233bee57e1270d3e330f0.01 BNB0.002847124
0xb251c7d6b4f225ac750c165022e47615252193e315862e1c5df88eaf5f757ccc15078792020-10-20 12:03:3911 days 13 hrs ago0x0238795d549cd15985b1a38850ebdc70a6c9f499OUT 0xcde540d7eafe93ac5fe6233bee57e1270d3e330f0.01298707560565 BNB0.003055596
0xc0bc2725b3c3392dc32ff51f8b63b92aa103cd7ab1c7660d8ddd7d9cd0d0799c15076392020-10-20 11:51:3911 days 13 hrs ago0xbe288e652ff75418f8187ac65fc93c941a2c2738 IN 0x0238795d549cd15985b1a38850ebdc70a6c9f4990.05 BNB0.000483
[ Download CSV Export 
Latest 6 internal transactions
Parent Txn Hash Block From To Value
0xcd23a8a908dd2f8beb35635add8080df05ae5b504431718e9026544687208cc417443532020-10-28 17:15:583 days 7 hrs ago PancakeSwap: Router0x0238795d549cd15985b1a38850ebdc70a6c9f4990.025094061468652007 BNB
0x07b2d5f181807a20c0aa8b8f1cbcdc1adb437d755021486a0b57da05324b61ca17443352020-10-28 17:15:043 days 7 hrs ago PancakeSwap: Router0x0238795d549cd15985b1a38850ebdc70a6c9f4990.029391127818226845 BNB
0xb251c7d6b4f225ac750c165022e47615252193e315862e1c5df88eaf5f757ccc15078792020-10-20 12:03:3911 days 13 hrs ago 0xcde540d7eafe93ac5fe6233bee57e1270d3e330f0x0238795d549cd15985b1a38850ebdc70a6c9f4990.000159391925423174 BNB
0xea1f66ce3bcaba8552327a512617eb6b63a66c39aa7c2426ee68a3159c89bef014847012020-10-19 16:44:4512 days 8 hrs ago BSCswap: Router0x0238795d549cd15985b1a38850ebdc70a6c9f4990.121350980411035325 BNB
0x548e40bfa2765ea640b70188e9f8c32e81189564dbb20d984373dfce9a1f164414729732020-10-19 6:58:2112 days 18 hrs ago 0xc523855c5f74af3b2876510727e82bf6e92e9f5e0x0238795d549cd15985b1a38850ebdc70a6c9f4990.98 BNB
0xb4bca126574646cd896824a5f5fd657b6e166e13aa9b64f3cd569fd9a6ab4ea113334192020-10-14 10:40:3917 days 14 hrs ago 0x2029f4d96e980ac4f5841ae38b17e3feb0d75e660x0238795d549cd15985b1a38850ebdc70a6c9f4990.000000497062651278 BNB
[ Download CSV Export 
Loading

Contract Name:
0 BNB

Compiler Version
0

Optimization Enabled:
0 BNB

Other Settings:
-NA-
Block Transaction Gas Used Reward
Age Block Fee Address BC Fee Address Voting Power Jailed Incoming
Block Uncle Number Difficulty Gas Used Reward
Loading
Loading
Make sure to use the "Vote Down" button for any spammy posts, and the "Vote Up" for interesting conversations.